Colby, KS

12:38 PM CDT on May 23, 2018 (GMT -0500)
Shaltz

Weather History for KCBK - January, 2014

Change the Weather History Date:

Wednesday, January 15, 2014

  Actual Average (KGLD) Record (KGLD)
Temperature  
Mean Temperature 44 °F -  
Max Temperature 59 °F 44 °F 68 °F (1943)
Min Temperature 28 °F 17 °F -6 °F (1930)
Degree Days  
Heating Degree Days 22    
Moisture  
Dew Point 24 °F    
Average Humidity 57    
Maximum Humidity 80    
Minimum Humidity 29    
Precipitation  
Precipitation 0.00 in - - ()
Sea Level Pressure  
Sea Level Pressure 30.07 in    
Wind  
Wind Speed 10 mph (West)    
Max Wind Speed 22 mph    
Max Gust Speed 29 mph    
Visibility 10 miles    
Events      
Averages and records for this station are not official NWS values.
T = Trace of Precipitation, MM = Missing Value Source: NWS Daily Summary

Daily Weather History Graph

Daily Weather History Graph

Search for Another Location

Airport or City:

Astronomy

Jan. 15, 2014 Rise Set
Actual Time 8:02 AM CST 5:45 PM CST
Civil Twilight 7:33 AM CST 6:14 PM CST
Nautical Twilight 7:00 AM CST 6:47 PM CST
Astronomical Twilight 6:27 AM CST 7:19 PM CST
Moon 5:44 PM CST (1/15) 7:20 AM CST (1/15)
Length of Visible Light 10h 41m
Length of Day
9h 42m
Full, 100% of the Moon is Illuminated
Jan 15
Full
Jan 15
Full
Jan 23
Last Quarter
Jan 30
New
Feb 6
First Quarter

Hourly Weather History & Observations

Time (CST) Temp. Windchill Dew Point Humidity Pressure Visibility Wind Dir Wind Speed Gust Speed Precip Events Conditions
12:15 AM 28.4 °F 21.2 °F 23.0 °F 80% 30.29 in 10.0 mi West 6.9 mph - N/A   Overcast
12:35 AM 28.4 °F 21.2 °F 21.2 °F 74% 30.29 in 10.0 mi WSW 6.9 mph - N/A   Overcast
12:55 AM 28.4 °F 20.4 °F 23.0 °F 80% 30.27 in 10.0 mi WSW 8.1 mph - N/A   Overcast
1:15 AM 28.4 °F 20.4 °F 23.0 °F 80% 30.26 in 10.0 mi SW 8.1 mph - N/A   Overcast
1:35 AM 28.4 °F 21.2 °F 23.0 °F 80% 30.26 in 10.0 mi WSW 6.9 mph - N/A   Overcast
1:55 AM 28.4 °F 22.2 °F 23.0 °F 80% 30.27 in 10.0 mi SW 5.8 mph - N/A   Overcast
2:15 AM 30.2 °F 24.3 °F 21.2 °F 69% 30.26 in 10.0 mi SSW 5.8 mph - N/A   Overcast
2:35 AM 30.2 °F 24.3 °F 23.0 °F 75% 30.26 in 10.0 mi SW 5.8 mph - N/A   Overcast
2:55 AM 30.2 °F 24.3 °F 23.0 °F 75% 30.25 in 10.0 mi West 5.8 mph - N/A   Overcast
3:15 AM 30.2 °F 23.4 °F 23.0 °F 75% 30.25 in 10.0 mi West 6.9 mph - N/A   Overcast
3:35 AM 28.4 °F 21.2 °F 23.0 °F 80% 30.24 in 10.0 mi West 6.9 mph - N/A   Overcast
3:55 AM 28.4 °F 20.4 °F 23.0 °F 80% 30.24 in 10.0 mi West 8.1 mph - N/A   Overcast
4:15 AM 30.2 °F 21.9 °F 23.0 °F 75% 30.24 in 10.0 mi West 9.2 mph - N/A   Overcast
4:35 AM 32.0 °F 23.6 °F 23.0 °F 69% 30.23 in 10.0 mi West 10.4 mph - N/A   Overcast
4:55 AM 32.0 °F 25.6 °F 23.0 °F 69% 30.22 in 10.0 mi West 6.9 mph - N/A   Overcast
5:15 AM 30.2 °F 24.3 °F 23.0 °F 75% 30.21 in 10.0 mi West 5.8 mph - N/A   Overcast
5:35 AM 30.2 °F 25.4 °F 23.0 °F 75% 30.20 in 10.0 mi West 4.6 mph - N/A   Overcast
5:55 AM 30.2 °F 25.4 °F 23.0 °F 75% 30.20 in 10.0 mi WSW 4.6 mph - N/A   Overcast
6:15 AM 30.2 °F 26.7 °F 23.0 °F 75% 30.20 in 10.0 mi West 3.5 mph - N/A   Overcast
6:35 AM 30.2 °F 24.3 °F 23.0 °F 75% 30.18 in 10.0 mi WSW 5.8 mph - N/A   Overcast
6:55 AM 30.2 °F 24.3 °F 23.0 °F 75% 30.18 in 10.0 mi WSW 5.8 mph - N/A   Overcast
7:15 AM 30.2 °F 24.3 °F 24.8 °F 80% 30.18 in 10.0 mi SW 5.8 mph - N/A   Overcast
7:35 AM 32.0 °F 24.2 °F 24.8 °F 75% 30.17 in 10.0 mi SW 9.2 mph - N/A   Overcast
7:55 AM 32.0 °F 25.6 °F 23.0 °F 69% 30.16 in 10.0 mi SW 6.9 mph - N/A   Overcast
8:15 AM 32.0 °F 24.2 °F 23.0 °F 69% 30.15 in 10.0 mi SW 9.2 mph - N/A   Overcast
8:35 AM 30.2 °F 24.3 °F 23.0 °F 75% 30.15 in 10.0 mi SW 5.8 mph - N/A   Overcast
8:55 AM 30.2 °F 23.4 °F 23.0 °F 75% 30.14 in 10.0 mi WSW 6.9 mph - N/A   Mostly Cloudy
9:15 AM 32.0 °F 22.5 °F 24.8 °F 75% 30.14 in 10.0 mi WSW 12.7 mph - N/A   Scattered Clouds
9:35 AM 35.6 °F 26.6 °F 26.6 °F 70% 30.13 in 10.0 mi WSW 13.8 mph - N/A   Clear
9:55 AM 37.4 °F 29.3 °F 26.6 °F 65% 30.12 in 10.0 mi WSW 12.7 mph - N/A   Clear
10:15 AM 37.4 °F 28.5 °F 26.6 °F 65% 30.12 in 10.0 mi West 15.0 mph - N/A   Clear
10:35 AM 41.0 °F 33.9 °F 26.6 °F 57% 30.11 in 10.0 mi West 12.7 mph - N/A   Clear
10:55 AM 42.8 °F 36.2 °F 28.4 °F 57% 30.10 in 10.0 mi West 12.7 mph - N/A   Clear
11:15 AM 46.4 °F 39.8 °F 28.4 °F 50% 30.09 in 10.0 mi West 16.1 mph 21.9 mph N/A   Clear
11:35 AM 50.0 °F - 28.4 °F 43% 30.08 in 10.0 mi West 20.7 mph 27.6 mph N/A   Clear
11:55 AM 51.8 °F - 28.4 °F 41% 30.06 in 10.0 mi West 20.7 mph 27.6 mph N/A   Clear
12:15 PM 53.6 °F - 28.4 °F 38% 30.05 in 10.0 mi West 18.4 mph 27.6 mph N/A   Clear
12:35 PM 53.6 °F - 26.6 °F 35% 30.02 in 10.0 mi West 19.6 mph 26.5 mph N/A   Clear
12:55 PM 55.4 °F - 26.6 °F 33% 30.01 in 10.0 mi WSW 21.9 mph 26.5 mph N/A   Scattered Clouds
1:15 PM 55.4 °F - 26.6 °F 33% 30.00 in 10.0 mi WSW 21.9 mph 28.8 mph N/A   Overcast
1:35 PM 53.6 °F - 26.6 °F 35% 29.98 in 10.0 mi WSW 20.7 mph 27.6 mph N/A   Overcast
1:55 PM 55.4 °F - 26.6 °F 33% 29.97 in 10.0 mi WSW 19.6 mph - N/A   Overcast
2:15 PM 55.4 °F - 26.6 °F 33% 29.95 in 10.0 mi WSW 19.6 mph 28.8 mph N/A   Scattered Clouds
2:35 PM 55.4 °F - 24.8 °F 31% 29.93 in 10.0 mi WSW 18.4 mph 27.6 mph N/A   Scattered Clouds
2:55 PM 57.2 °F - 26.6 °F 31% 29.93 in 10.0 mi West 17.3 mph 25.3 mph N/A   Clear
3:15 PM 59.0 °F - 26.6 °F 29% 29.92 in 10.0 mi WNW 16.1 mph 21.9 mph N/A   Clear
3:35 PM 55.4 °F - 26.6 °F 33% 29.92 in 10.0 mi WNW 20.7 mph - N/A   Clear
3:55 PM 57.2 °F - 26.6 °F 31% 29.92 in 10.0 mi NW 16.1 mph - N/A   Clear
4:15 PM 55.4 °F - 26.6 °F 33% 29.93 in 10.0 mi NW 17.3 mph 25.3 mph N/A   Scattered Clouds
4:35 PM 53.6 °F - 26.6 °F 35% 29.93 in 10.0 mi WNW 11.5 mph - N/A   Scattered Clouds
4:55 PM 53.6 °F - 26.6 °F 35% 29.93 in 10.0 mi WNW 10.4 mph - N/A   Scattered Clouds
5:15 PM 53.6 °F - 26.6 °F 35% 29.92 in 10.0 mi WNW 10.4 mph - N/A   Scattered Clouds
5:35 PM 51.8 °F - 26.6 °F 38% 29.92 in 10.0 mi NW 9.2 mph - N/A   Clear
5:55 PM 48.2 °F - 26.6 °F 43% 29.92 in 10.0 mi NW 9.2 mph - N/A   Clear
6:15 PM 44.6 °F 39.2 °F 24.8 °F 46% 29.93 in 10.0 mi NW 10.4 mph - N/A   Clear
6:35 PM 44.6 °F 38.1 °F 24.8 °F 46% 29.94 in 10.0 mi NW 13.8 mph - N/A   Clear
6:55 PM 44.6 °F 39.7 °F 23.0 °F 43% 29.95 in 10.0 mi NW 9.2 mph - N/A   Clear
7:15 PM 42.8 °F 38.0 °F 23.0 °F 46% 29.93 in 10.0 mi NW 8.1 mph - N/A   Clear
7:35 PM 37.4 °F 30.3 °F 23.0 °F 56% 29.93 in 10.0 mi NW 10.4 mph - N/A   Clear
7:55 PM 37.4 °F 29.8 °F 23.0 °F 56% 29.94 in 10.0 mi WNW 11.5 mph - N/A   Clear
8:15 PM 37.4 °F 29.8 °F 21.2 °F 52% 29.94 in 10.0 mi West 11.5 mph - N/A   Clear
8:35 PM 35.6 °F 28.0 °F 21.2 °F 56% 29.94 in 10.0 mi WNW 10.4 mph - N/A   Clear
8:55 PM 39.2 °F 31.2 °F 23.0 °F 52% 29.95 in 10.0 mi WNW 13.8 mph - N/A   Clear
9:15 PM 37.4 °F 29.3 °F 23.0 °F 56% 29.95 in 10.0 mi WNW 12.7 mph - N/A   Clear
9:35 PM 37.4 °F 29.8 °F 23.0 °F 56% 29.95 in 10.0 mi WNW 11.5 mph - N/A   Clear
9:55 PM 37.4 °F 29.3 °F 23.0 °F 56% 29.96 in 10.0 mi West 12.7 mph - N/A   Clear
10:15 PM 33.8 °F 25.8 °F 23.0 °F 65% 29.96 in 10.0 mi West 10.4 mph - N/A   Clear
10:35 PM 35.6 °F 29.2 °F 23.0 °F 60% 29.95 in 10.0 mi West 8.1 mph - N/A   Clear
10:55 PM 42.8 °F 34.5 °F 24.8 °F 49% 29.95 in 10.0 mi WNW 18.4 mph - N/A   Clear
11:15 PM 42.8 °F 34.5 °F 23.0 °F 46% 29.95 in 10.0 mi NW 18.4 mph - N/A   Clear
11:35 PM 42.8 °F 35.8 °F 23.0 °F 46% 29.96 in 10.0 mi WNW 13.8 mph - N/A   Clear
11:55 PM 39.2 °F 30.8 °F 23.0 °F 52% 29.96 in 10.0 mi WNW 15.0 mph - N/A   Clear